CZ-3C DEB, 40195

Orbit data source: Space-Track

CZ-3C DEB, 40195 is space debris in HEO originally from a launch on Fri, 24 Feb 2012 UTC launched from the Xichang Space Center, China (XSC). Debris objects in space refer to the collection of defunct objects orbiting the Earth. Examples of debris include non-operational satellites, rocket bodies, and fragments generated from explosions, collisions, or faulty payload assembly.

Loading next visibility...
Identifier
40195, 2012-008E
Orbit
HEO
Country
Flag of CNCN / PRC
Related business
Manufacturer
CALT
Mission
Spacecraft
Bus & Motor
Unknown
Mass
Unknown
Launch date (UTC)
2012-02-24 (14 years ago)
Launch vehicle
Unknown
Launch site
Xichang Space Center, China (XSC)
Object type
Payload
Rocket body
Debris
Shape & HBR
Unknown shape, 0.2 m
Radar Cross Section
Medium (>0.1 m² and <1 m²)

Expand to show TLE details & history
Last TLE update: 3 days ago

TLE from 3 days ago
0 CZ-3C DEB
1 40195U 12008E   26032.76506157  .00001282  00000-0  52612-2 0  9991
2 40195  20.1707 236.4207 7107114 110.2681 334.5051  2.39723189 13887
Epoch: 2026-02-01T18:21Z
TLE epoch observation values (Epoch: 2026-02-01T18:21:41.319Z)
Latitude
-0.00002°
Longitude
-170.87904°
Altitude
9,045.486 km
Speed
5.898 km/s
True Right ascension
15h 46m 03s
True Declination
0° 00' 00"
Sunlit
Object was in daylight at epoch
Visualization orbit readout
Latitude
Unknown
Longitude
Unknown
Altitude
Unknown
Speed
Unknown
Apparent Right ascension
Unknown
Apparent Declination
Unknown
Sunlit
N/A
Visualization observer readout
Local Sidereal Time
08:59:38
Azimuth
Unknown
Elevation
Unknown
Doppler factor
Unknown
Orbital elements
Apogee altitude
33,972.773 km
Perigee altitude
445.374 km
Semi-major axis
23,587.21 km
Eccentricity
0.71071
Inclination
20.1707°
RAAN
236.4207°
Arg. of periapsis
110.2681°
True anomaly
249.65941°
Mean anomaly
334.5051°
Eccentric anomaly
298.83228°
Mean motion
0.59914 °/min
Orbital period
600.86 mins
BSTAR
0.0052612
Loading maneuver chart data...
Computing Atmospheric mass density...
Loading historical data...
Loading historical data...
Loading historical data...
Loading historical data...
Loading historical data...
Loading historical data...
Loading historical data...

Documentation

Showing up to 5 results
|